Outer Banks, North Carolina, United States
Lat: 35.98N, Lon: 75.65W
Wx Zone: NCZ103
Local Info
Past Weather Observations for Today

NOTE: This archive is for the closest National Weather Service station to Outer Banks. Information may differ from the station used for current weather conditions.

Time Weather Temperature Dewpoint Humidity Pressure Winds Precip Visibility
08:55
Clear
54°F / 12°C 36°F / 2°C 51% 30.12 in
(1020 mb)
N 9.2 mph
(N 15 kph)
-
08:35
Clear
54°F / 12°C 36°F / 2°C 51% 30.09 in
(1019 mb)
N 8.1 mph
(N 13 kph)
-
08:15
Clear
54°F / 12°C 36°F / 2°C 51% 30.09 in
(1019 mb)
N 9.2 mph
(N 15 kph)
-
07:55
Clear
52°F / 11°C 36°F / 2°C 54% 30.09 in
(1019 mb)
NNE 9.2 mph
(NNE 15 kph)
-
07:35
Clear
52°F / 11°C 36°F / 2°C 54% 30.09 in
(1019 mb)
N 5.8 mph
(N 9 kph)
-
07:15
Clear
52°F / 11°C 36°F / 2°C 54% 30.09 in
(1019 mb)
N 5.8 mph
(N 9 kph)
-
06:55
Clear
50°F / 10°C 37°F / 3°C 62% 30.09 in
(1019 mb)
N 8.1 mph
(N 13 kph)
-
06:35
Clear
50°F / 10°C 36°F / 2°C 58% 30.06 in
(1018 mb)
N 5.8 mph
(N 9 kph)
-
06:15
Clear
50°F / 10°C 36°F / 2°C 58% 30.06 in
(1018 mb)
N 8.1 mph
(N 13 kph)
-
05:55
Clear
48°F / 9°C 37°F / 3°C 66% 30.06 in
(1018 mb)
N 6.9 mph
(N 11 kph)
-
05:35
Clear
48°F / 9°C 37°F / 3°C 66% 30.06 in
(1018 mb)
N 4.6 mph
(N 7 kph)
-
05:15
Clear
48°F / 9°C 37°F / 3°C 66% 30.04 in
(1017 mb)
N 6.9 mph
(N 11 kph)
-
04:55
Clear
48°F / 9°C 37°F / 3°C 66% 30.04 in
(1017 mb)
N 5.8 mph
(N 9 kph)
-
04:35
Clear
48°F / 9°C 37°F / 3°C 66% 30.04 in
(1017 mb)
N 4.6 mph
(N 7 kph)
-
04:15
Clear
48°F / 9°C 37°F / 3°C 66% 30.04 in
(1017 mb)
N 5.8 mph
(N 9 kph)
-
03:55
Clear
48°F / 9°C 37°F / 3°C 66% 30.01 in
(1016 mb)
N 6.9 mph
(N 11 kph)
-
03:35
Clear
48°F / 9°C 37°F / 3°C 66% 30.01 in
(1016 mb)
N 6.9 mph
(N 11 kph)
-
03:15
Clear
48°F / 9°C 39°F / 4°C 71% 30.01 in
(1016 mb)
N 5.8 mph
(N 9 kph)
-
02:55
Clear
50°F / 10°C 39°F / 4°C 67% 30.01 in
(1016 mb)
N 5.8 mph
(N 9 kph)
-
02:35
Clear
50°F / 10°C 41°F / 5°C 71% 30.01 in
(1016 mb)
N 5.8 mph
(N 9 kph)
-
02:15
Clear
52°F / 11°C 41°F / 5°C 67% 30.01 in
(1016 mb)
N 8.1 mph
(N 13 kph)
-
01:55
Clear
52°F / 11°C 41°F / 5°C 67% 29.98 in
(1015 mb)
N 8.1 mph
(N 13 kph)
-
01:35
Clear
52°F / 11°C 41°F / 5°C 67% 29.98 in
(1015 mb)
N 10.4 mph
(N 17 kph)
-
01:15
Clear
52°F / 11°C 41°F / 5°C 67% 29.98 in
(1015 mb)
N 9.2 mph
(N 15 kph)
-
00:55
Clear
54°F / 12°C 39°F / 4°C 58% 29.98 in
(1015 mb)
N 9.2 mph
(N 15 kph)
- 10SM
00:35
Clear
54°F / 12°C 39°F / 4°C 58% 29.98 in
(1015 mb)
NNW 5.8 mph
(NNW 9 kph)
- 10SM
00:15
Clear
54°F / 12°C 41°F / 5°C 63% 29.98 in
(1015 mb)
NNW 6.9 mph
(NNW 11 kph)
- 10SM
Time Weather Temperature Dewpoint Humidity Pressure Winds Precip Visibility


Weather for websites

WeatherForYou.com, LLC is not responsible for any damages or problems caused by this service. Current weather conditions are obtained from the closest station including government and personal stations which may have varying degrees of accuracy. Weather forecasts are derived from the NOAA NDFD. Like all things, this site belongs to Jesus Christ... He just trusts me to maintain it. If you have any questions or comments email webmaster@weatherforyou.com

Copyright © 2014, WeatherForYou.com LLC. All rights reserved.